• In Hungary
  • List of Countries
  • For 7 days
  • Water Temperature
  • Satellite Maps
  • Weather Map
  • News
  • Weather Widgets
  • user-avatar
    Login

    Hourly Weather Holesov

    Today, 22 October, Sunday

    Time Temperature Precipitation Wind Pressure Humidity
    00:00 +9°C° 0 mm 1 mps 741 mmHg 91%
    01:00 +9°C° 0 mm 1 mps 741 mmHg 91%
    02:00 +9°C° 0 mm 1 mps 741 mmHg 91%
    03:00 +9°C° 0 mm 1 mps 740 mmHg 91%
    04:00 +9°C° 0 mm 1 mps 740 mmHg 91%
    05:00 +9°C° 0.2 mm 1 mps 740 mmHg 91%
    06:00 +10°C° 0.2 mm 1 mps 740 mmHg 91%
    07:00 +10°C° 0 mm 1 mps 740 mmHg 85%
    08:00 +9°C° 0.8 mm 2 mps 740 mmHg 87%
    09:00 +9°C° 0.8 mm 2 mps 741 mmHg 89%
    10:00 +9°C° 0.8 mm 3 mps 741 mmHg 91%
    11:00 +9°C° 0.9 mm 2 mps 741 mmHg 90%
    12:00 +10°C° 0.9 mm 2 mps 741 mmHg 89%
    13:00 +10°C° 0.9 mm 2 mps 740 mmHg 89%
    14:00 +10°C° 0.2 mm 2 mps 740 mmHg 88%
    15:00 +11°C° 0.2 mm 1 mps 740 mmHg 88%
    16:00 +11°C° 0.2 mm 1 mps 740 mmHg 88%
    17:00 +11°C° 0.1 mm 1 mps 740 mmHg 89%
    18:00 +11°C° 0.1 mm 1 mps 740 mmHg 90%
    19:00 +10°C° 0.1 mm 1 mps 740 mmHg 91%
    20:00 +10°C° 0.1 mm 1 mps 740 mmHg 91%
    21:00 +10°C° 0.1 mm 1 mps 740 mmHg 91%
    22:00 +10°C° 0.1 mm 1 mps 740 mmHg 91%
    23:00 +8°C° 0.1 mm 2 mps 739 mmHg 90%

    Tomorrow, 23 October, Monday

    Time Temperature Precipitation Wind Pressure Humidity
    00:00 +8°C° 0.1 mm 2 mps 739 mmHg 90%
    01:00 +8°C° 0.1 mm 2 mps 739 mmHg 89%
    02:00 +8°C° 0.2 mm 2 mps 739 mmHg 89%
    03:00 +8°C° 0.2 mm 3 mps 739 mmHg 89%
    04:00 +8°C° 0.2 mm 3 mps 738 mmHg 89%
    05:00 +8°C° 0.2 mm 3 mps 738 mmHg 89%
    06:00 +8°C° 0.2 mm 3 mps 738 mmHg 89%
    07:00 +7°C° 0.2 mm 3 mps 738 mmHg 89%
    08:00 +8°C° 0.1 mm 3 mps 738 mmHg 87%
    09:00 +8°C° 0.1 mm 4 mps 739 mmHg 84%
    10:00 +8°C° 0.1 mm 4 mps 739 mmHg 81%
    11:00 +8°C° 0.2 mm 4 mps 739 mmHg 81%
    12:00 +8°C° 0.2 mm 5 mps 739 mmHg 81%
    13:00 +9°C° 0.2 mm 5 mps 739 mmHg 81%
    14:00 +9°C° 0.2 mm 5 mps 739 mmHg 82%
    15:00 +8°C° 0.2 mm 5 mps 739 mmHg 83%
    16:00 +8°C° 0.2 mm 5 mps 739 mmHg 85%
    17:00 +8°C° 0.2 mm 5 mps 739 mmHg 85%
    18:00 +8°C° 0.2 mm 5 mps 740 mmHg 86%
    19:00 +8°C° 0.2 mm 5 mps 740 mmHg 87%
    20:00 +8°C° 0.1 mm 5 mps 740 mmHg 86%
    21:00 +8°C° 0.1 mm 5 mps 741 mmHg 86%
    22:00 +8°C° 0.1 mm 5 mps 741 mmHg 86%
    23:00 +7°C° 0.1 mm 5 mps 742 mmHg 86%

    Day after tomorrow, 24 October, Tuesday

    Time Temperature Precipitation Wind Pressure Humidity
    00:00 +7°C° 0.1 mm 5 mps 742 mmHg 87%
    01:00 +7°C° 0.1 mm 5 mps 742 mmHg 87%
    02:00 +7°C° 0 mm 5 mps 742 mmHg 88%
    03:00 +7°C° 0 mm 4 mps 743 mmHg 88%
    04:00 +7°C° 0 mm 4 mps 743 mmHg 89%
    05:00 +7°C° 0 mm 4 mps 744 mmHg 89%
    06:00 +7°C° 0 mm 4 mps 744 mmHg 89%
    07:00 +7°C° 0 mm 4 mps 745 mmHg 89%
    08:00 +8°C° 0 mm 4 mps 745 mmHg 85%
    09:00 +10°C° 0 mm 4 mps 745 mmHg 81%
    10:00 +10°C° 0 mm 4 mps 746 mmHg 77%
    11:00 +11°C° 0 mm 4 mps 746 mmHg 75%
    12:00 +12°C° 0 mm 4 mps 746 mmHg 72%
    13:00 +12°C° 0 mm 4 mps 746 mmHg 70%
    14:00 +12°C° 0 mm 4 mps 746 mmHg 72%
    15:00 +11°C° 0 mm 3 mps 746 mmHg 75%
    16:00 +11°C° 0 mm 3 mps 746 mmHg 77%
    17:00 +10°C° 0 mm 2 mps 747 mmHg 82%
    18:00 +8°C° 0 mm 2 mps 747 mmHg 86%
    19:00 +8°C° 0 mm 1 mps 747 mmHg 91%
    20:00 +8°C° 0 mm 1 mps 748 mmHg 91%
    21:00 +8°C° 0 mm 1 mps 748 mmHg 92%
    22:00 +7°C° 0 mm 1 mps 748 mmHg 93%
    23:00 +7°C° 0 mm 1 mps 748 mmHg 92%

    25 October, Wednesday

    Time Temperature Precipitation Wind Pressure Humidity
    00:00 +7°C° 0 mm 1 mps 748 mmHg 92%
    01:00 +6°C° 0 mm 0 mps 748 mmHg 92%
    02:00 +7°C° 0 mm 1 mps 748 mmHg 92%
    03:00 +7°C° 0 mm 1 mps 747 mmHg 92%
    04:00 +6°C° 0 mm 1 mps 747 mmHg 92%
    05:00 +7°C° 0 mm 1 mps 747 mmHg 92%
    06:00 +7°C° 0 mm 1 mps 747 mmHg 92%
    07:00 +7°C° 0 mm 1 mps 747 mmHg 91%
    08:00 +9°C° 0 mm 1 mps 747 mmHg 87%
    09:00 +10°C° 0 mm 1 mps 747 mmHg 84%
    10:00 +12°C° 0 mm 2 mps 747 mmHg 80%
    11:00 +13°C° 0 mm 2 mps 746 mmHg 80%
    12:00 +13°C° 0 mm 2 mps 746 mmHg 80%
    13:00 +13°C° 0 mm 3 mps 746 mmHg 80%
    14:00 +14°C° 0 mm 2 mps 746 mmHg 82%
    15:00 +14°C° 0 mm 2 mps 746 mmHg 84%
    16:00 +14°C° 0 mm 2 mps 746 mmHg 86%
    17:00 +14°C° 0 mm 2 mps 746 mmHg 87%
    18:00 +13°C° 0 mm 2 mps 746 mmHg 89%
    19:00 +13°C° 0 mm 2 mps 746 mmHg 91%
    20:00 +12°C° 0 mm 2 mps 747 mmHg 92%
    21:00 +12°C° 0 mm 1 mps 747 mmHg 93%
    22:00 +12°C° 0 mm 1 mps 747 mmHg 93%
    23:00 +11°C° 0 mm 1 mps 747 mmHg 94%

    26 October, Thursday

    Time Temperature Precipitation Wind Pressure Humidity
    00:00 +11°C° 0 mm 1 mps 747 mmHg 94%
    01:00 +10°C° 0 mm 2 mps 747 mmHg 95%
    02:00 +11°C° 0 mm 1 mps 747 mmHg 95%
    03:00 +11°C° 0 mm 1 mps 747 mmHg 95%
    04:00 +10°C° 0 mm 1 mps 747 mmHg 96%
    05:00 +10°C° 0 mm 1 mps 747 mmHg 96%
    06:00 +10°C° 0 mm 1 mps 747 mmHg 96%
    07:00 +10°C° 0 mm 1 mps 747 mmHg 96%
    08:00 +12°C° 0 mm 2 mps 747 mmHg 92%
    09:00 +13°C° 0 mm 2 mps 747 mmHg 87%
    10:00 +14°C° 0 mm 2 mps 747 mmHg 83%
    11:00 +15°C° 0 mm 2 mps 747 mmHg 79%
    12:00 +16°C° 0 mm 2 mps 746 mmHg 76%
    13:00 +17°C° 0 mm 2 mps 746 mmHg 72%
    14:00 +16°C° 0 mm 2 mps 746 mmHg 74%
    15:00 +16°C° 0 mm 2 mps 746 mmHg 76%
    16:00 +15°C° 0 mm 2 mps 745 mmHg 78%
    17:00 +15°C° 0 mm 2 mps 745 mmHg 81%
    18:00 +14°C° 0 mm 2 mps 745 mmHg 85%
    19:00 +13°C° 0 mm 2 mps 745 mmHg 88%
    20:00 +12°C° 0 mm 2 mps 745 mmHg 90%
    21:00 +12°C° 0 mm 1 mps 745 mmHg 91%
    22:00 +12°C° 0 mm 1 mps 745 mmHg 92%
    23:00 +12°C° 0 mm 1 mps 745 mmHg 93%

    27 October, Friday

    Time Temperature Precipitation Wind Pressure Humidity
    00:00 +12°C° 0 mm 1 mps 745 mmHg 94%
    01:00 +12°C° 0 mm 1 mps 744 mmHg 95%
    02:00 +12°C° 0 mm 1 mps 744 mmHg 95%
    03:00 +11°C° 0 mm 1 mps 744 mmHg 95%
    04:00 +11°C° 0 mm 1 mps 743 mmHg 96%
    05:00 +10°C° 0 mm 2 mps 743 mmHg 96%
    06:00 +10°C° 0 mm 2 mps 742 mmHg 95%
    07:00 +12°C° 0 mm 2 mps 742 mmHg 95%
    08:00 +12°C° 0 mm 3 mps 742 mmHg 91%
    09:00 +13°C° 0 mm 4 mps 741 mmHg 86%
    10:00 +14°C° 0 mm 4 mps 741 mmHg 81%
    11:00 +14°C° 0 mm 5 mps 740 mmHg 78%
    12:00 +15°C° 0 mm 5 mps 739 mmHg 74%
    13:00 +15°C° 0 mm 5 mps 738 mmHg 71%
    14:00 +15°C° 0 mm 5 mps 738 mmHg 71%
    15:00 +15°C° 0 mm 5 mps 737 mmHg 71%
    16:00 +14°C° 0 mm 4 mps 736 mmHg 71%
    17:00 +13°C° 0.4 mm 4 mps 736 mmHg 75%
    18:00 +13°C° 0.4 mm 4 mps 736 mmHg 79%
    19:00 +12°C° 0.4 mm 4 mps 736 mmHg 83%
    20:00 +11°C° 0.4 mm 4 mps 737 mmHg 82%
    21:00 +10°C° 0.4 mm 4 mps 737 mmHg 81%
    22:00 +8°C° 0.4 mm 4 mps 737 mmHg 81%
    23:00 +7°C° 0 mm 4 mps 738 mmHg 82%
    Show more